Regional Weather Roundup
Issued by NWS Little Rock, AR

Home | Current Version | Previous Version | Text Only | Print | Product List | Glossary Off
Versions: 1 2 3 4 5 6 7 8 9 10 11 12 13 14 15 16 17 18 19 20 21 22 23 24 25 26 27 28 29 30 31 32 33 34 35 36 37 38 39 40 41 42 43 44 45 46 47 48 49 50

000
ASUS44 KLZK 300705
RWRLZK

WEATHER ROUNDUP FOR ARKANSAS
NATIONAL WEATHER SERVICE LITTLE ROCK AR
200 AM CDT SAT JUL 30 2016

NOTE: "FAIR" INDICATES FEW OR NO CLOUDS BELOW 12,000 FEET WITH NO
SIGNIFICANT WEATHER AND/OR OBSTRUCTIONS TO VISIBILITY.

ARZ001-003-010-029-300800-
NORTHWEST ARKANSAS

CITY           SKY/WX    TMP DP  RH WIND       PRES   REMARKS
FAYETTEVILLE   CLEAR     71  71 100 SE3       30.00F
FORT SMITH     PTCLDY    75  69  81 CALM      29.96F
HARRISON       CLOUDY    69  68  96 CALM      30.01F
BENTONVILLE    CLEAR     72  66  83 NW3       30.01F
ROGERS         CLEAR     71  70  96 CALM      30.01F
SILOAM SPGS    CLEAR     72  63  73 CALM      30.01F
HIGHFILL       MOCLDY    73  71  93 W6        30.00F
$$

ARZ004-005-016-300800-
NORTH CENTRAL ARKANSAS

CITY           SKY/WX    TMP DP  RH WIND       PRES   REMARKS
BATESVILLE     CLOUDY    72  70  94 CALM      29.98S
FLIPPIN        CLOUDY    72  66  83 CALM      29.97S VSB 1/4
MTN HOME       MOCLDY    70  70 100 CALM      29.99S
$$

ARZ040-041-300800-
WEST CENTRAL ARKANSAS

CITY           SKY/WX    TMP DP  RH WIND       PRES   REMARKS
MENA             N/A    N/A N/A N/A MISG        N/A
MOUNT IDA      CLOUDY    72  72 100 CALM      29.97S
$$

ARZ009-017-025-026-028-300800-
NORTHEAST ARKANSAS

CITY           SKY/WX    TMP DP  RH WIND       PRES   REMARKS
CORNING          N/A     72  72 100 SW6       29.97S
JONESBORO      CLOUDY    72  70  93 W5        29.96F
NEWPORT        CLOUDY    73  73 100 CALM      29.97F
WALNUT RIDGE   CLOUDY    72  70  94 CALM      29.96S
BLYTHEVILLE    PTCLDY    72  70  93 SW5       29.96F
$$

ARZ022-023-033-042-044-300800-
CENTRAL ARKANSAS

CITY           SKY/WX    TMP DP  RH WIND       PRES   REMARKS
LITTLE ROCK    MOCLDY    75  71  87 SW7       29.96F
N LITTLE ROCK    N/A     73  71  95 CALM      29.93F
JACKSONVILLE   CLOUDY    74  74  99 S5        29.95F
SEARCY         PTCLDY    72  72 100 CALM      30.09S
HOT SPRINGS    CLOUDY    73  71  93 W3        29.99R
RUSSELLVILLE   PTCLDY    74  73  97 CALM      29.96F
$$

ARZ036-300800-
EAST ARKANSAS

CITY           SKY/WX    TMP DP  RH WIND       PRES   REMARKS
WEST MEMPHIS   CLOUDY    72  71  97 CALM      29.96S
$$

ARZ050-053-066-070-073-300800-
SOUTHWEST ARKANSAS

CITY           SKY/WX    TMP DP  RH WIND       PRES   REMARKS
ARKADELPHIA    FAIR      72  71  97 CALM      29.98F
CAMDEN         CLOUDY    72  68  88 CALM      29.97S
TEXARKANA      CLOUDY    73  71  93 NW5       29.99S
EL DORADO      PTCLDY    74  72  93 S8        29.96F
DE QUEEN       MOCLDY    71  70  96 CALM      29.98S
$$

ARZ056-057-069-300800-
SOUTHEAST ARKANSAS

CITY           SKY/WX    TMP DP  RH WIND       PRES   REMARKS
PINE BLUFF     LGT RAIN  73  72  96 NW6       29.97S
STUTTGART      CLOUDY    75  70  83 SW3       29.96F
MONTICELLO     PTCLDY    76  73  91 CALM      29.96F

$$





USA.gov is the U.S. government's official web portal to all federal, state and local government web resources and services.